| time (UTC) | temp F | wind direction | speed MPH | gust MPH | rain 1hr in | rain 24hr in | rain mn in | humidity % | barometer mb |
| 20260506062516 | 58 | 0 | 0.0 | 2.0 | 0.00 | 0.00 | 0.00 | 80 | 1015.1 |
| 20260506062017 | 58 | 195 | 0.0 | 2.0 | 0.00 | 0.00 | 0.00 | 80 | 1015.1 |
| 20260506061534 | 58 | 0 | 0.0 | 2.0 | 0.00 | 0.00 | 0.00 | 80 | 1015.0 |
| 20260506061018 | 58 | 0 | 0.0 | 0.0 | 0.00 | 0.00 | 0.00 | 79 | 1015.2 |
| 20260506060518 | 58 | 0 | 0.0 | 1.0 | 0.00 | 0.00 | 0.00 | 79 | 1015.1 |
| 20260506051018 | 59 | 0 | 0.0 | 1.0 | 0.00 | 0.00 | 0.00 | 78 | 1014.6 |
| 20260506050517 | 60 | 0 | 0.0 | 1.0 | 0.00 | 0.00 | 0.00 | 77 | 1014.7 |
| 20260506045017 | 60 | 0 | 0.0 | 1.0 | 0.00 | 0.00 | 0.00 | 76 | 1014.5 |
| 20260506044615 | 60 | 0 | 0.0 | 1.0 | 0.00 | 0.00 | 0.00 | 76 | 1014.5 |
| 20260506044017 | 60 | 0 | 0.0 | 1.0 | 0.00 | 0.00 | 0.00 | 76 | 1014.2 |
| 20260506043517 | 60 | 0 | 0.0 | 0.0 | 0.00 | 0.00 | 0.00 | 76 | 1014.2 |
| 20260506043032 | 61 | 0 | 0.0 | 0.0 | 0.00 | 0.00 | 0.00 | 76 | 1014.3 |
| 20260506042517 | 61 | 0 | 0.0 | 1.0 | 0.00 | 0.00 | 0.00 | 75 | 1014.2 |
| 20260506042021 | 61 | 0 | 0.0 | 1.0 | 0.00 | 0.00 | 0.00 | 75 | 1014.2 |
| 20260506041536 | 61 | 0 | 0.0 | 1.0 | 0.00 | 0.00 | 0.00 | 75 | 1014.1 |
| 20260506041021 | 61 | 0 | 0.0 | 0.0 | 0.00 | 0.00 | 0.00 | 75 | 1014.1 |
| 20260506040517 | 61 | 0 | 0.0 | 0.0 | 0.00 | 0.00 | 0.00 | 75 | 1014.0 |
| 20260506040036 | 61 | 0 | 0.0 | 0.0 | 0.00 | 0.00 | 0.00 | 75 | 1014.0 |
| 20260506035517 | 61 | 0 | 0.0 | 1.0 | 0.00 | 0.00 | 0.00 | 75 | 1014.0 |
| 20260506035017 | 62 | 0 | 0.0 | 1.0 | 0.00 | 0.00 | 0.00 | 74 | 1013.9 |
| 20260506034600 | 62 | 0 | 0.0 | 0.0 | 0.00 | 0.00 | 0.00 | 74 | 1013.9 |
| 20260506034016 | 62 | 0 | 0.0 | 0.0 | 0.00 | 0.00 | 0.00 | 73 | 1013.8 |
| 20260506033516 | 63 | 0 | 0.0 | 0.0 | 0.00 | 0.00 | 0.00 | 73 | 1013.8 |
| 20260506033036 | 63 | 0 | 0.0 | 0.0 | 0.00 | 0.00 | 0.00 | 72 | 1013.8 |
| 20260506032517 | 63 | 0 | 0.0 | 0.0 | 0.00 | 0.00 | 0.00 | 71 | 1013.7 |
| 20260506032019 | 63 | 0 | 0.0 | 0.0 | 0.00 | 0.00 | 0.00 | 71 | 1013.6 |
| 20260506031534 | 63 | 0 | 0.0 | 0.0 | 0.00 | 0.00 | 0.00 | 71 | 1013.6 |
| 20260506031015 | 63 | 0 | 0.0 | 0.0 | 0.00 | 0.00 | 0.00 | 71 | 1013.7 |
| 20260506030515 | 64 | 0 | 0.0 | 0.0 | 0.00 | 0.00 | 0.00 | 70 | 1013.6 |
| 20260506030033 | 64 | 0 | 0.0 | 1.0 | 0.00 | 0.00 | 0.00 | 70 | 1013.5 |
| 20260506025516 | 64 | 0 | 0.0 | 1.0 | 0.00 | 0.00 | 0.00 | 70 | 1013.6 |
| 20260506025015 | 64 | 0 | 0.0 | 0.0 | 0.00 | 0.00 | 0.00 | 69 | 1013.6 |
| 20260506024532 | 64 | 0 | 0.0 | 0.0 | 0.00 | 0.00 | 0.00 | 69 | 1013.5 |
| 20260506024015 | 64 | 0 | 0.0 | 1.0 | 0.00 | 0.00 | 0.00 | 68 | 1013.4 |
| 20260506023516 | 65 | 0 | 0.0 | 1.0 | 0.00 | 0.00 | 0.00 | 68 | 1013.5 |
| 20260506023029 | 65 | 0 | 0.0 | 1.0 | 0.00 | 0.00 | 0.00 | 68 | 1013.5 |
| 20260506022514 | 65 | 0 | 0.0 | 0.0 | 0.00 | 0.00 | 0.00 | 67 | 1013.5 |
| 20260506022012 | 65 | 0 | 0.0 | 1.0 | 0.00 | 0.00 | 0.00 | 68 | 1013.5 |
| 20260506021533 | 65 | 0 | 0.0 | 1.0 | 0.00 | 0.00 | 0.00 | 67 | 1013.5 |
| 20260506021015 | 65 | 0 | 0.0 | 1.0 | 0.00 | 0.00 | 0.00 | 67 | 1013.5 |
| 20260506020514 | 65 | 0 | 0.0 | 2.0 | 0.00 | 0.00 | 0.00 | 67 | 1013.4 |
| 20260506020032 | 65 | 0 | 0.0 | 2.0 | 0.00 | 0.00 | 0.00 | 67 | 1013.4 |
| 20260506015519 | 65 | 0 | 0.0 | 1.0 | 0.00 | 0.00 | 0.00 | 66 | 1013.3 |
| 20260506015016 | 65 | 0 | 0.0 | 1.0 | 0.00 | 0.00 | 0.00 | 66 | 1013.4 |
| 20260506014531 | 65 | 0 | 0.0 | 1.0 | 0.00 | 0.00 | 0.00 | 66 | 1013.3 |
| 20260506014015 | 66 | 0 | 0.0 | 2.0 | 0.00 | 0.00 | 0.00 | 65 | 1013.3 |
| 20260506013515 | 66 | 0 | 0.0 | 3.0 | 0.00 | 0.00 | 0.00 | 65 | 1013.4 |
| 20260506013033 | 66 | 0 | 1.0 | 3.0 | 0.00 | 0.00 | 0.00 | 65 | 1013.3 |
| 20260506012515 | 66 | 0 | 0.0 | 0.0 | 0.00 | 0.00 | 0.00 | 65 | 1013.3 |
| 20260506012014 | 66 | 0 | 0.0 | 2.0 | 0.00 | 0.00 | 0.00 | 64 | 1013.3 |
| 20260506011532 | 66 | 0 | 0.0 | 2.0 | 0.00 | 0.00 | 0.00 | 64 | 1013.4 |
| 20260506011018 | 66 | 294 | 0.0 | 2.0 | 0.00 | 0.00 | 0.00 | 64 | 1013.3 |
| 20260506010515 | 66 | 294 | 0.0 | 2.0 | 0.00 | 0.00 | 0.00 | 63 | 1013.4 |
| 20260506010032 | 67 | 0 | 0.0 | 3.0 | 0.00 | 0.00 | 0.00 | 63 | 1013.4 |
| 20260506005515 | 67 | 294 | 0.0 | 3.0 | 0.00 | 0.00 | 0.00 | 63 | 1013.4 |
| 20260506005014 | 67 | 0 | 0.0 | 3.0 | 0.00 | 0.00 | 0.00 | 62 | 1013.4 |
| 20260506004546 | 67 | 80 | 0.0 | 2.0 | 0.00 | 0.00 | 0.00 | 62 | 1013.5 |
| 20260506004015 | 67 | 0 | 0.0 | 2.0 | 0.00 | 0.00 | 0.00 | 62 | 1013.5 |
| 20260506003516 | 67 | 0 | 0.0 | 1.0 | 0.00 | 0.00 | 0.00 | 63 | 1013.4 |
| 20260506003043 | 68 | 0 | 0.0 | 2.0 | 0.00 | 0.00 | 0.00 | 62 | 1013.5 |
| 20260506002514 | 68 | 0 | 0.0 | 2.0 | 0.00 | 0.00 | 0.00 | 61 | 1013.5 |
| 20260506002012 | 68 | 335 | 0.0 | 2.0 | 0.00 | 0.00 | 0.00 | 61 | 1013.5 |
| 20260506001535 | 68 | 0 | 0.0 | 1.0 | 0.00 | 0.00 | 0.00 | 61 | 1013.6 |
| 20260506001015 | 68 | 0 | 0.0 | 1.0 | 0.00 | 0.00 | 0.00 | 61 | 1013.7 |
| 20260506000519 | 68 | 0 | 0.0 | 2.0 | 0.00 | 0.00 | 0.00 | 60 | 1013.7 |
| 20260506000032 | 68 | 0 | 0.0 | 2.0 | 0.00 | 0.00 | 0.00 | 60 | 1013.6 |
| 20260505235517 | 68 | 345 | 0.0 | 2.0 | 0.00 | 0.00 | 0.00 | 59 | 1013.7 |
| 20260505235017 | 68 | 0 | 0.0 | 1.0 | 0.00 | 0.00 | 0.00 | 59 | 1013.8 |
| 20260505234554 | 68 | 0 | 0.0 | 2.0 | 0.00 | 0.00 | 0.00 | 59 | 1013.8 |
| 20260505234022 | 69 | 0 | 0.0 | 2.0 | 0.00 | 0.00 | 0.00 | 58 | 1013.8 |
| 20260505233520 | 69 | 324 | 0.0 | 2.0 | 0.00 | 0.00 | 0.00 | 57 | 1013.9 |
| 20260505233038 | 69 | 0 | 0.0 | 1.0 | 0.00 | 0.00 | 0.00 | 58 | 1013.8 |
| 20260505232517 | 69 | 0 | 0.0 | 2.0 | 0.00 | 0.00 | 0.00 | 57 | 1013.9 |
| 20260505232017 | 69 | 0 | 0.0 | 2.0 | 0.00 | 0.00 | 0.00 | 57 | 1014.0 |
| 20260505231535 | 69 | 0 | 0.0 | 2.0 | 0.00 | 0.00 | 0.00 | 58 | 1014.1 |
| 20260505231016 | 69 | 0 | 0.0 | 2.0 | 0.00 | 0.00 | 0.00 | 57 | 1014.1 |
| 20260505230516 | 69 | 352 | 0.0 | 2.0 | 0.00 | 0.00 | 0.00 | 58 | 1014.1 |
| 20260505230041 | 69 | 0 | 0.0 | 3.0 | 0.00 | 0.00 | 0.00 | 58 | 1014.2 |
| 20260505225521 | 69 | 0 | 0.0 | 3.0 | 0.00 | 0.00 | 0.00 | 58 | 1014.2 |
| 20260505225019 | 69 | 0 | 0.0 | 2.0 | 0.00 | 0.00 | 0.00 | 56 | 1014.2 |
| 20260505224539 | 69 | 0 | 0.0 | 2.0 | 0.00 | 0.00 | 0.00 | 57 | 1014.3 |
| 20260505224017 | 69 | 0 | 0.0 | 2.0 | 0.00 | 0.00 | 0.00 | 56 | 1014.3 |
| 20260505223517 | 70 | 250 | 0.0 | 4.0 | 0.00 | 0.00 | 0.00 | 57 | 1014.4 |
| 20260505223042 | 70 | 244 | 0.0 | 4.0 | 0.00 | 0.00 | 0.00 | 57 | 1014.4 |
| 20260505222520 | 70 | 266 | 1.0 | 4.0 | 0.00 | 0.00 | 0.00 | 56 | 1014.5 |
| 20260505222019 | 70 | 338 | 0.0 | 4.0 | 0.00 | 0.00 | 0.00 | 56 | 1014.4 |
| 20260505221532 | 70 | 272 | 0.0 | 3.0 | 0.00 | 0.00 | 0.00 | 56 | 1014.4 |
| 20260505221016 | 70 | 0 | 0.0 | 3.0 | 0.00 | 0.00 | 0.00 | 55 | 1014.5 |
| 20260505220518 | 70 | 0 | 0.0 | 3.0 | 0.00 | 0.00 | 0.00 | 56 | 1014.5 |
| 20260505220051 | 70 | 275 | 1.0 | 3.0 | 0.00 | 0.00 | 0.00 | 54 | 1014.6 |
| 20260505215518 | 70 | 302 | 1.0 | 3.0 | 0.00 | 0.00 | 0.00 | 56 | 1014.5 |
| 20260505215017 | 69 | 0 | 0.0 | 3.0 | 0.00 | 0.00 | 0.00 | 55 | 1014.6 |
| 20260505214539 | 69 | 302 | 0.0 | 2.0 | 0.00 | 0.00 | 0.00 | 56 | 1014.7 |
| 20260505214018 | 69 | 301 | 0.0 | 3.0 | 0.00 | 0.00 | 0.00 | 57 | 1014.6 |
| 20260505213518 | 69 | 281 | 0.0 | 3.0 | 0.00 | 0.00 | 0.00 | 57 | 1014.7 |
| 20260505213031 | 69 | 297 | 0.0 | 2.0 | 0.00 | 0.00 | 0.00 | 57 | 1014.8 |
| 20260505212519 | 69 | 0 | 0.0 | 2.0 | 0.00 | 0.00 | 0.00 | 58 | 1014.8 |
| 20260505212018 | 69 | 0 | 0.0 | 3.0 | 0.00 | 0.00 | 0.00 | 58 | 1014.9 |
| 20260505211545 | 68 | 278 | 0.0 | 3.0 | 0.00 | 0.00 | 0.00 | 58 | 1015.0 |
| 20260505211017 | 68 | 286 | 0.0 | 4.0 | 0.00 | 0.00 | 0.00 | 59 | 1015.0 |
| 20260505210538 | 68 | 286 | 0.0 | 4.0 | 0.00 | 0.00 | 0.00 | 58 | 1015.1 |
| 20260505210034 | 68 | 0 | 1.0 | 4.0 | 0.00 | 0.00 | 0.00 | 60 | 1015.1 |
| 20260505205517 | 68 | 0 | 0.0 | 5.0 | 0.00 | 0.00 | 0.00 | 59 | 1015.2 |
| 20260505205017 | 69 | 251 | 1.0 | 7.0 | 0.00 | 0.00 | 0.00 | 61 | 1015.1 |
| 20260505204536 | 69 | 267 | 1.0 | 7.0 | 0.00 | 0.00 | 0.00 | 60 | 1015.2 |
| 20260505204016 | 69 | 247 | 0.0 | 3.0 | 0.00 | 0.00 | 0.00 | 60 | 1015.3 |
| 20260505203517 | 69 | 0 | 0.0 | 7.0 | 0.00 | 0.00 | 0.00 | 59 | 1015.2 |
| 20260505203036 | 69 | 283 | 1.0 | 7.0 | 0.00 | 0.00 | 0.00 | 58 | 1015.3 |
| 20260505202519 | 69 | 247 | 0.0 | 6.0 | 0.00 | 0.00 | 0.00 | 60 | 1015.2 |
| 20260505202018 | 69 | 262 | 1.0 | 6.0 | 0.00 | 0.00 | 0.00 | 59 | 1015.4 |
| 20260505201534 | 70 | 0 | 1.0 | 3.0 | 0.00 | 0.00 | 0.00 | 58 | 1015.2 |
| 20260505201017 | 70 | 243 | 0.0 | 8.0 | 0.00 | 0.00 | 0.00 | 58 | 1015.2 |
| 20260505200518 | 69 | 309 | 0.0 | 8.0 | 0.00 | 0.00 | 0.00 | 58 | 1015.3 |
| 20260505200038 | 69 | 247 | 2.0 | 7.0 | 0.00 | 0.00 | 0.00 | 60 | 1015.2 |
| 20260505195517 | 69 | 247 | 2.0 | 5.0 | 0.00 | 0.00 | 0.00 | 59 | 1015.4 |
| 20260505195017 | 69 | 262 | 1.0 | 7.0 | 0.00 | 0.00 | 0.00 | 59 | 1015.4 |
| 20260505194541 | 69 | 248 | 0.0 | 7.0 | 0.00 | 0.00 | 0.00 | 61 | 1015.4 |
| 20260505194017 | 69 | 261 | 1.0 | 7.0 | 0.00 | 0.00 | 0.00 | 61 | 1015.4 |
| 20260505193516 | 68 | 237 | 2.0 | 7.0 | 0.00 | 0.00 | 0.00 | 62 | 1015.3 |
| 20260505193042 | 68 | 252 | 1.0 | 7.0 | 0.00 | 0.00 | 0.00 | 61 | 1015.3 |
| 20260505192517 | 69 | 284 | 1.0 | 4.0 | 0.00 | 0.00 | 0.00 | 59 | 1015.4 |
| 20260505192017 | 69 | 198 | 1.0 | 4.0 | 0.00 | 0.00 | 0.00 | 60 | 1015.4 |
| 20260505191549 | 69 | 269 | 1.0 | 3.0 | 0.00 | 0.00 | 0.00 | 60 | 1015.6 |
| 20260505191022 | 68 | 279 | 1.0 | 3.0 | 0.00 | 0.00 | 0.00 | 60 | 1015.4 |
| 20260505190518 | 69 | 295 | 1.0 | 6.0 | 0.00 | 0.00 | 0.00 | 59 | 1015.4 |
| 20260505190034 | 68 | 259 | 0.0 | 6.0 | 0.00 | 0.00 | 0.00 | 60 | 1015.4 |
| 20260505185515 | 68 | 0 | 2.0 | 6.0 | 0.00 | 0.00 | 0.00 | 61 | 1015.4 |
| 20260505185017 | 68 | 235 | 1.0 | 7.0 | 0.00 | 0.00 | 0.00 | 64 | 1015.4 |
| 20260505184534 | 67 | 250 | 3.0 | 7.0 | 0.00 | 0.00 | 0.00 | 64 | 1015.4 |
| 20260505184018 | 67 | 257 | 0.0 | 4.0 | 0.00 | 0.00 | 0.00 | 63 | 1015.4 |
| 20260505183517 | 67 | 285 | 1.0 | 7.0 | 0.00 | 0.00 | 0.00 | 64 | 1015.4 |
| 20260505183032 | 67 | 0 | 1.0 | 7.0 | 0.00 | 0.00 | 0.00 | 65 | 1015.5 |
| 20260505182517 | 67 | 249 | 3.0 | 7.0 | 0.00 | 0.00 | 0.00 | 63 | 1015.4 |
| 20260505182018 | 67 | 226 | 0.0 | 5.0 | 0.00 | 0.00 | 0.00 | 64 | 1015.4 |
| 20260505181535 | 67 | 259 | 1.0 | 5.0 | 0.00 | 0.00 | 0.00 | 66 | 1015.3 |
| 20260505181017 | 66 | 293 | 0.0 | 3.0 | 0.00 | 0.00 | 0.00 | 66 | 1015.3 |
| 20260505180519 | 66 | 257 | 0.0 | 9.0 | 0.00 | 0.00 | 0.00 | 65 | 1015.3 |
| 20260505180047 | 66 | 248 | 1.0 | 9.0 | 0.00 | 0.00 | 0.00 | 67 | 1015.4 |
| 20260505175518 | 66 | 263 | 0.0 | 2.0 | 0.00 | 0.00 | 0.00 | 65 | 1015.3 |
| 20260505175018 | 67 | 261 | 0.0 | 7.0 | 0.00 | 0.00 | 0.00 | 65 | 1015.3 |
| 20260505174555 | 67 | 254 | 2.0 | 7.0 | 0.00 | 0.00 | 0.00 | 65 | 1015.3 |
| 20260505174018 | 67 | 254 | 0.0 | 6.0 | 0.00 | 0.00 | 0.00 | 66 | 1015.3 |
| 20260505173518 | 67 | 242 | 1.0 | 6.0 | 0.00 | 0.00 | 0.00 | 65 | 1015.2 |
| 20260505173031 | 67 | 0 | 0.0 | 8.0 | 0.00 | 0.00 | 0.00 | 66 | 1015.3 |
| 20260505172517 | 67 | 0 | 2.0 | 8.0 | 0.00 | 0.00 | 0.00 | 66 | 1015.4 |
| 20260505172017 | 67 | 271 | 2.0 | 8.0 | 0.00 | 0.00 | 0.00 | 66 | 1015.3 |
| 20260505171535 | 67 | 259 | 1.0 | 7.0 | 0.00 | 0.00 | 0.00 | 66 | 1015.4 |
| 20260505171017 | 67 | 223 | 2.0 | 7.0 | 0.00 | 0.00 | 0.00 | 65 | 1015.2 |
| 20260505170517 | 67 | 248 | 0.0 | 5.0 | 0.00 | 0.00 | 0.00 | 66 | 1015.4 |
| 20260505170033 | 67 | 227 | 1.0 | 5.0 | 0.00 | 0.00 | 0.00 | 65 | 1015.3 |
| 20260505165521 | 67 | 225 | 1.0 | 4.0 | 0.00 | 0.00 | 0.00 | 65 | 1015.3 |
| 20260505165017 | 67 | 252 | 0.0 | 7.0 | 0.00 | 0.00 | 0.00 | 66 | 1015.3 |
| 20260505164534 | 66 | 248 | 2.0 | 7.0 | 0.00 | 0.00 | 0.00 | 66 | 1015.2 |
| 20260505164017 | 66 | 230 | 1.0 | 4.0 | 0.00 | 0.00 | 0.00 | 67 | 1015.1 |
| 20260505163517 | 67 | 0 | 0.0 | 3.0 | 0.00 | 0.00 | 0.00 | 66 | 1015.1 |
| 20260505163039 | 67 | 0 | 0.0 | 3.0 | 0.00 | 0.00 | 0.00 | 66 | 1015.2 |
| 20260505162517 | 67 | 286 | 0.0 | 3.0 | 0.00 | 0.00 | 0.00 | 68 | 1015.1 |
| 20260505162016 | 66 | 254 | 0.0 | 6.0 | 0.00 | 0.00 | 0.00 | 67 | 1015.2 |
| 20260505161532 | 66 | 248 | 0.0 | 8.0 | 0.00 | 0.00 | 0.00 | 68 | 1015.1 |
| 20260505161017 | 66 | 252 | 1.0 | 8.0 | 0.00 | 0.00 | 0.00 | 68 | 1015.0 |
| 20260505160517 | 66 | 0 | 1.0 | 5.0 | 0.00 | 0.00 | 0.00 | 68 | 1015.0 |
| 20260505153047 | 68 | 290 | 0.0 | 2.0 | 0.00 | 0.00 | 0.00 | 67 | 1014.9 |
| 20260505152520 | 68 | 290 | 0.0 | 2.0 | 0.00 | 0.00 | 0.00 | 66 | 1014.8 |
| 20260505152016 | 67 | 0 | 0.0 | 2.0 | 0.00 | 0.00 | 0.00 | 67 | 1014.8 |
| 20260505151544 | 67 | 0 | 0.0 | 2.0 | 0.00 | 0.00 | 0.00 | 68 | 1014.7 |
| 20260505151017 | 67 | 257 | 0.0 | 2.0 | 0.00 | 0.00 | 0.00 | 69 | 1014.6 |
| 20260505150517 | 67 | 0 | 0.0 | 4.0 | 0.00 | 0.00 | 0.00 | 68 | 1014.5 |
| 20260505140515 | 61 | 0 | 0.0 | 0.0 | 0.00 | 0.00 | 0.00 | 75 | 1014.0 |
| 20260505125015 | 57 | 0 | 0.0 | 0.0 | 0.00 | 0.00 | 0.00 | 77 | 1013.0 |
| 20260505124535 | 58 | 0 | 0.0 | 0.0 | 0.00 | 0.00 | 0.00 | 77 | 1013.1 |
| 20260505124016 | 58 | 0 | 0.0 | 0.0 | 0.00 | 0.00 | 0.00 | 77 | 1012.9 |
| 20260505123516 | 58 | 0 | 0.0 | 0.0 | 0.00 | 0.00 | 0.00 | 77 | 1013.0 |
| 20260505123053 | 58 | 0 | 0.0 | 0.0 | 0.00 | 0.00 | 0.00 | 77 | 1012.9 |
| 20260505122515 | 58 | 0 | 0.0 | 0.0 | 0.00 | 0.00 | 0.00 | 77 | 1012.8 |
| 20260505122015 | 58 | 0 | 0.0 | 0.0 | 0.00 | 0.00 | 0.00 | 76 | 1012.7 |
| 20260505121530 | 58 | 0 | 0.0 | 0.0 | 0.00 | 0.00 | 0.00 | 76 | 1012.7 |
| 20260505121013 | 58 | 0 | 0.0 | 0.0 | 0.00 | 0.00 | 0.00 | 77 | 1012.5 |
| 20260505120516 | 58 | 0 | 0.0 | 0.0 | 0.00 | 0.00 | 0.00 | 76 | 1012.4 |
| 20260505120032 | 58 | 0 | 0.0 | 0.0 | 0.00 | 0.00 | 0.00 | 75 | 1012.4 |
| 20260505115516 | 58 | 0 | 0.0 | 0.0 | 0.00 | 0.00 | 0.00 | 75 | 1012.4 |
| 20260505115017 | 58 | 0 | 0.0 | 0.0 | 0.00 | 0.00 | 0.00 | 74 | 1012.3 |
| 20260505114543 | 58 | 0 | 0.0 | 0.0 | 0.00 | 0.00 | 0.00 | 74 | 1012.3 |
| 20260505114018 | 58 | 0 | 0.0 | 2.0 | 0.00 | 0.00 | 0.00 | 74 | 1012.3 |
| 20260505113517 | 58 | 0 | 0.0 | 3.0 | 0.00 | 0.00 | 0.00 | 73 | 1012.2 |
| 20260505113037 | 58 | 25 | 1.0 | 3.0 | 0.00 | 0.00 | 0.00 | 73 | 1012.3 |
| 20260505112517 | 58 | 25 | 1.0 | 3.0 | 0.00 | 0.00 | 0.00 | 74 | 1012.3 |
| 20260505112020 | 58 | 0 | 0.0 | 3.0 | 0.00 | 0.00 | 0.00 | 74 | 1012.2 |
| 20260505111552 | 58 | 25 | 2.0 | 3.0 | 0.00 | 0.00 | 0.00 | 74 | 1012.2 |
| 20260505111017 | 58 | 25 | 0.0 | 3.0 | 0.00 | 0.00 | 0.00 | 74 | 1012.1 |
| 20260505110517 | 59 | 24 | 0.0 | 2.0 | 0.00 | 0.00 | 0.00 | 73 | 1012.0 |
| 20260505102020 | 60 | 24 | 1.0 | 2.0 | 0.00 | 0.00 | 0.00 | 73 | 1011.4 |
| 20260505101536 | 60 | 24 | 1.0 | 2.0 | 0.00 | 0.00 | 0.00 | 73 | 1011.2 |
| 20260505101019 | 60 | 24 | 0.0 | 3.0 | 0.00 | 0.00 | 0.00 | 73 | 1011.4 |
| 20260505100517 | 60 | 24 | 1.0 | 3.0 | 0.00 | 0.00 | 0.00 | 73 | 1011.3 |
| 20260505100036 | 60 | 24 | 1.0 | 3.0 | 0.00 | 0.00 | 0.00 | 73 | 1011.2 |
| 20260505095517 | 60 | 0 | 0.0 | 2.0 | 0.00 | 0.00 | 0.00 | 74 | 1011.3 |
| 20260505095016 | 60 | 0 | 0.0 | 3.0 | 0.00 | 0.00 | 0.00 | 74 | 1011.2 |
| 20260505094538 | 60 | 0 | 0.0 | 3.0 | 0.00 | 0.00 | 0.00 | 75 | 1011.3 |
| 20260505094019 | 60 | 23 | 0.0 | 2.0 | 0.00 | 0.00 | 0.00 | 74 | 1011.2 |
| 20260505093516 | 60 | 0 | 0.0 | 2.0 | 0.00 | 0.00 | 0.00 | 74 | 1011.0 |
| 20260505093031 | 60 | 0 | 0.0 | 2.0 | 0.00 | 0.00 | 0.00 | 75 | 1011.0 |
| 20260505092517 | 60 | 23 | 0.0 | 1.0 | 0.00 | 0.00 | 0.00 | 74 | 1011.0 |
| 20260505092018 | 61 | 0 | 0.0 | 0.0 | 0.00 | 0.00 | 0.00 | 73 | 1011.0 |
| 20260505091536 | 61 | 0 | 0.0 | 0.0 | 0.00 | 0.00 | 0.00 | 72 | 1011.0 |
| 20260505091016 | 61 | 0 | 0.0 | 0.0 | 0.00 | 0.00 | 0.00 | 72 | 1011.0 |
| 20260505090518 | 61 | 0 | 0.0 | 0.0 | 0.00 | 0.00 | 0.00 | 71 | 1011.0 |
| 20260505090042 | 61 | 0 | 0.0 | 0.0 | 0.00 | 0.00 | 0.00 | 71 | 1010.9 |
| 20260505085517 | 61 | 0 | 0.0 | 0.0 | 0.00 | 0.00 | 0.00 | 71 | 1010.9 |
| 20260505085018 | 61 | 0 | 0.0 | 2.0 | 0.00 | 0.00 | 0.00 | 69 | 1010.7 |
| 20260505084536 | 61 | 0 | 0.0 | 2.0 | 0.00 | 0.00 | 0.00 | 68 | 1010.7 |
| 20260505084017 | 61 | 0 | 1.0 | 3.0 | 0.00 | 0.00 | 0.00 | 68 | 1010.8 |
| 20260505083516 | 61 | 23 | 0.0 | 3.0 | 0.00 | 0.00 | 0.00 | 67 | 1010.8 |
| 20260505083040 | 61 | 0 | 0.0 | 1.0 | 0.00 | 0.00 | 0.00 | 67 | 1010.7 |
| 20260505082513 | 61 | 0 | 0.0 | 0.0 | 0.00 | 0.00 | 0.00 | 67 | 1010.7 |
| 20260505082014 | 61 | 0 | 0.0 | 1.0 | 0.00 | 0.00 | 0.00 | 66 | 1010.7 |
| 20260505081540 | 61 | 0 | 0.0 | 2.0 | 0.00 | 0.00 | 0.00 | 66 | 1010.5 |
| 20260505081021 | 62 | 0 | 0.0 | 3.0 | 0.00 | 0.00 | 0.00 | 65 | 1010.4 |
| 20260505080516 | 62 | 0 | 0.0 | 3.0 | 0.00 | 0.00 | 0.00 | 65 | 1010.6 |
| 20260505080038 | 62 | 0 | 0.0 | 3.0 | 0.00 | 0.00 | 0.00 | 65 | 1010.4 |
| 20260505075515 | 62 | 0 | 0.0 | 3.0 | 0.00 | 0.00 | 0.00 | 67 | 1010.5 |
| 20260505075017 | 62 | 0 | 0.0 | 2.0 | 0.00 | 0.00 | 0.00 | 67 | 1010.6 |
| 20260505074530 | 62 | 295 | 0.0 | 2.0 | 0.00 | 0.00 | 0.00 | 65 | 1010.6 |
| 20260505074015 | 62 | 0 | 0.0 | 5.0 | 0.00 | 0.00 | 0.00 | 63 | 1010.4 |
| 20260505073515 | 62 | 0 | 0.0 | 5.0 | 0.00 | 0.00 | 0.00 | 63 | 1010.4 |
| 20260505073032 | 62 | 31 | 1.0 | 5.0 | 0.00 | 0.00 | 0.00 | 64 | 1010.4 |
| 20260505072514 | 63 | 0 | 0.0 | 3.0 | 0.00 | 0.00 | 0.00 | 64 | 1010.3 |
| 20260505072015 | 63 | 17 | 1.0 | 3.0 | 0.00 | 0.00 | 0.00 | 63 | 1010.3 |
| 20260505071537 | 63 | 0 | 0.0 | 3.0 | 0.00 | 0.00 | 0.00 | 63 | 1010.3 |
| 20260505071016 | 63 | 17 | 1.0 | 3.0 | 0.00 | 0.00 | 0.00 | 63 | 1010.2 |
| 20260505070514 | 63 | 0 | 0.0 | 2.0 | 0.00 | 0.00 | 0.00 | 62 | 1010.2 |
| 20260505070035 | 63 | 17 | 1.0 | 3.0 | 0.00 | 0.00 | 0.00 | 62 | 1010.0 |
| 20260505065516 | 63 | 17 | 0.0 | 3.0 | 0.00 | 0.00 | 0.00 | 63 | 1010.1 |